EW3966 Weather Reports


Display with metric or nautical units.
time (UTC)temp
F
wind
direction
speed
MPH
gust
MPH
rain 1hr
in
rain 24hr
in
rain mn
in
humidity
%
barometer
mb
20260906000501 56 58 7.0 28.0 0.00 0.00 0.00 94 1006.8
20260906000107 56 357 10.0 28.0 0.00 0.00 0.00 94 1006.7
20260905235603 56 232 8.0 22.0 0.00 0.00 0.00 94 1006.7
20260905235201 56 109 6.0 24.0 0.00 0.00 0.00 94 1006.7
20260905234606 56 351 6.0 24.0 0.00 0.00 0.00 94 1006.8
20260905234058 56 147 9.0 25.0 0.00 0.00 0.00 94 1007.1
20260905233558 56 59 6.0 26.0 0.00 0.00 0.00 94 1007.2
20260905233058 56 68 7.0 26.0 0.00 0.00 0.00 94 1007.3
20260905232557 56 107 9.0 19.0 0.00 0.00 0.00 94 1007.5
20260905232056 56 88 7.0 16.0 0.00 0.00 0.00 94 1007.6
20260905231557 56 141 7.0 21.0 0.00 0.00 0.00 94 1007.7
20260905231058 56 57 8.0 21.0 0.00 0.00 0.00 94 1007.6
20260905230559 56 122 6.0 25.0 0.00 0.00 0.00 94 1007.6
20260905230057 56 45 10.0 25.0 0.00 0.00 0.00 94 1007.7
20260905225555 56 154 6.0 22.0 0.00 0.00 0.00 94 1007.7
20260905225155 56 110 8.0 24.0 0.00 0.00 0.00 94 1007.8
20260905224556 56 69 10.0 24.0 0.00 0.00 0.00 94 1007.9
20260905224056 56 89 10.0 24.0 0.00 0.00 0.00 94 1007.9
20260905223555 56 86 9.0 26.0 0.00 0.00 0.00 93 1007.9
20260905223055 56 127 8.0 26.0 0.00 0.00 0.00 93 1008.1
20260905222555 56 51 10.0 25.0 0.00 0.00 0.00 94 1007.9
20260905222053 56 75 13.0 25.0 0.00 0.00 0.00 93 1008.0
20260905221553 56 64 10.0 21.0 0.00 0.00 0.00 93 1007.9
20260905221053 56 80 12.0 24.0 0.00 0.00 0.00 93 1008.0
20260905220552 56 79 12.0 24.0 0.00 0.00 0.00 93 1007.9
20260905220053 56 75 10.0 22.0 0.00 0.00 0.00 93 1008.0
20260905215553 56 42 11.0 29.0 0.00 0.00 0.00 93 1008.0
20260905215152 56 70 11.0 23.0 0.00 0.00 0.00 92 1008.1
20260905214554 56 72 11.0 23.0 0.00 0.00 0.00 92 1008.1
20260905214054 56 89 9.0 23.0 0.00 0.00 0.00 92 1008.2
20260905213557 56 72 9.0 23.0 0.00 0.00 0.00 92 1008.3
20260905213059 56 60 9.0 20.0 0.00 0.00 0.00 92 1008.3
20260905212553 56 95 9.0 20.0 0.00 0.00 0.00 92 1008.4
20260905212051 56 83 10.0 19.0 0.00 0.00 0.00 92 1008.4
20260905211605 56 53 8.0 22.0 0.00 0.00 0.00 92 1008.4
20260905211052 56 80 9.0 22.0 0.00 0.00 0.00 92 1008.6
20260905210551 56 82 9.0 23.0 0.00 0.00 0.00 91 1008.8
20260905210059 56 67 8.0 23.0 0.00 0.00 0.00 91 1008.8
20260905205549 56 59 13.0 27.0 0.00 0.00 0.00 91 1008.8
20260905205150 56 81 15.0 27.0 0.00 0.00 0.00 91 1008.8
20260905204550 56 62 16.0 27.0 0.00 0.00 0.00 91 1008.8
20260905204048 56 91 14.0 26.0 0.00 0.00 0.00 90 1008.8
20260905203546 56 70 12.0 29.0 0.00 0.00 0.00 90 1008.7
20260905203045 56 49 18.0 29.0 0.00 0.00 0.00 91 1008.7
20260905202544 56 68 16.0 27.0 0.00 0.00 0.00 91 1008.9
20260905202044 56 72 16.0 27.0 0.00 0.00 0.00 91 1009.0
20260905201551 56 76 14.0 25.0 0.00 0.00 0.00 91 1008.9
20260905201044 56 47 14.0 26.0 0.00 0.00 0.00 91 1009.0
20260905200544 56 98 15.0 26.0 0.00 0.00 0.00 91 1009.0
20260905200045 56 42 14.0 27.0 0.00 0.00 0.00 91 1009.1
20260905195543 56 51 17.0 27.0 0.00 0.00 0.00 90 1009.2
20260905195142 56 74 14.0 25.0 0.00 0.00 0.00 90 1009.2
20260905194543 56 77 16.0 25.0 0.00 0.00 0.00 90 1009.2
20260905194047 56 39 14.0 25.0 0.00 0.00 0.00 90 1009.3
20260905193547 56 91 15.0 26.0 0.00 0.00 0.00 90 1009.3
20260905193042 56 76 15.0 29.0 0.00 0.00 0.00 90 1009.2
20260905192542 56 73 15.0 29.0 0.00 0.00 0.00 89 1009.2
20260905192041 56 70 16.0 27.0 0.00 0.00 0.00 89 1009.2
20260905191541 56 62 15.0 27.0 0.00 0.00 0.00 89 1009.3
20260905191043 56 68 15.0 30.0 0.00 0.00 0.00 89 1009.2
20260905190540 57 103 18.0 30.0 0.00 0.00 0.00 88 1009.3
20260905190039 57 70 18.0 29.0 0.00 0.00 0.00 88 1009.4
20260905185538 57 95 16.0 25.0 0.00 0.00 0.00 88 1009.4
20260905185137 57 70 17.0 27.0 0.00 0.00 0.00 87 1009.6
20260905184537 57 87 16.0 27.0 0.00 0.00 0.00 87 1009.4
20260905184039 57 60 15.0 26.0 0.00 0.00 0.00 87 1009.5
20260905183535 58 102 15.0 26.0 0.00 0.00 0.00 85 1009.6
20260905183037 58 76 18.0 26.0 0.00 0.00 0.00 84 1009.6
20260905182533 58 45 16.0 25.0 0.00 0.00 0.00 85 1009.6
20260905182033 58 50 13.0 23.0 0.00 0.00 0.00 84 1009.7
20260905181531 58 311 14.0 22.0 0.00 0.00 0.00 84 1009.8
20260905181031 58 83 14.0 22.0 0.00 0.00 0.00 83 1009.8
20260905180534 59 48 12.0 22.0 0.00 0.00 0.00 83 1009.9
20260905180030 59 79 12.0 22.0 0.00 0.00 0.00 82 1010.0
20260905175529 59 72 13.0 21.0 0.00 0.00 0.00 82 1010.0
20260905175131 59 48 16.0 26.0 0.00 0.00 0.00 81 1010.0
20260905174532 59 84 17.0 26.0 0.00 0.00 0.00 81 1010.0
20260905174030 59 73 14.0 26.0 0.00 0.00 0.00 81 1010.1
20260905173532 59 62 15.0 24.0 0.00 0.00 0.00 81 1010.2
20260905173051 59 71 17.0 23.0 0.00 0.00 0.00 80 1010.2
20260905172529 59 61 11.0 24.0 0.00 0.00 0.00 82 1010.3
20260905172028 59 78 15.0 24.0 0.00 0.00 0.00 80 1010.3
20260905171529 59 72 14.0 25.0 0.00 0.00 0.00 81 1010.3
20260905171027 59 83 13.0 25.0 0.00 0.00 0.00 81 1010.3
20260905170527 59 41 14.0 23.0 0.00 0.00 0.00 81 1010.3
20260905170027 59 88 14.0 23.0 0.00 0.00 0.00 80 1010.4
20260905165526 59 72 13.0 22.0 0.00 0.00 0.00 81 1010.4
20260905165127 59 61 14.0 22.0 0.00 0.00 0.00 81 1010.5
20260905164526 59 50 11.0 23.0 0.00 0.00 0.00 82 1010.5
20260905164029 59 74 12.0 23.0 0.00 0.00 0.00 81 1010.5
20260905163526 59 73 13.0 21.0 0.00 0.00 0.00 81 1010.6
20260905163026 59 73 13.0 21.0 0.00 0.00 0.00 80 1010.6
20260905162529 59 77 11.0 20.0 0.00 0.00 0.00 82 1010.6
20260905162027 59 71 12.0 19.0 0.00 0.00 0.00 82 1010.6
20260905161525 59 58 11.0 21.0 0.00 0.00 0.00 82 1010.7
20260905161024 59 68 11.0 21.0 0.00 0.00 0.00 82 1010.8
20260905160523 59 78 11.0 21.0 0.00 0.00 0.00 82 1010.7
20260905160025 59 75 11.0 21.0 0.00 0.00 0.00 81 1010.9
20260905155523 59 48 11.0 19.0 0.00 0.00 0.00 82 1011.0
20260905155123 59 74 12.0 16.0 0.00 0.00 0.00 81 1011.1
20260905154522 59 55 8.0 15.0 0.00 0.00 0.00 82 1011.1
20260905154024 59 91 5.0 10.0 0.00 0.00 0.00 82 1011.2
20260905153522 59 87 5.0 10.0 0.00 0.00 0.00 82 1011.3
20260905153023 59 97 4.0 14.0 0.00 0.00 0.00 82 1011.2
20260905152522 60 59 6.0 14.0 0.00 0.00 0.00 82 1011.2
20260905152024 60 80 7.0 14.0 0.00 0.00 0.00 82 1011.2
20260905151520 60 75 7.0 14.0 0.00 0.00 0.00 81 1011.4
20260905151021 60 43 7.0 16.0 0.00 0.00 0.00 81 1011.4
20260905150520 61 88 6.0 16.0 0.00 0.00 0.00 81 1011.5
20260905150021 61 48 6.0 12.0 0.00 0.00 0.00 81 1011.3
20260905145519 61 103 5.0 12.0 0.00 0.00 0.00 80 1011.4
20260905145119 60 88 8.0 15.0 0.00 0.00 0.00 81 1011.6
20260905144520 60 66 9.0 15.0 0.00 0.00 0.00 81 1011.5
20260905144020 61 62 7.0 15.0 0.00 0.00 0.00 80 1011.7
20260905143520 61 88 6.0 15.0 0.00 0.00 0.00 80 1011.6
20260905143024 61 100 8.0 15.0 0.00 0.00 0.00 81 1011.6
20260905142518 61 83 5.0 16.0 0.00 0.00 0.00 81 1011.7
20260905142021 60 60 7.0 16.0 0.00 0.00 0.00 81 1011.7
20260905141526 61 78 8.0 15.0 0.00 0.00 0.00 81 1011.8
20260905141021 61 72 7.0 16.0 0.00 0.00 0.00 80 1011.7
20260905140520 61 86 8.0 16.0 0.00 0.00 0.00 80 1011.8
20260905140018 61 56 9.0 15.0 0.00 0.00 0.00 80 1011.9
20260905135517 60 100 8.0 14.0 0.00 0.00 0.00 81 1011.9
20260905135119 61 85 8.0 14.0 0.00 0.00 0.00 80 1012.0
20260905134517 61 117 8.0 14.0 0.00 0.00 0.00 81 1012.1
20260905134019 60 53 6.0 13.0 0.00 0.00 0.00 81 1012.1
20260905133516 60 85 6.0 13.0 0.00 0.00 0.00 81 1012.1
20260905133016 60 63 6.0 13.0 0.00 0.00 0.00 82 1012.1
20260905132517 60 112 5.0 10.0 0.00 0.00 0.00 82 1012.0
20260905132017 60 83 5.0 11.0 0.00 0.00 0.00 82 1012.0
20260905131520 60 93 6.0 14.0 0.00 0.00 0.00 82 1011.9
20260905131016 60 81 8.0 14.0 0.00 0.00 0.00 82 1011.9
20260905130516 60 73 6.0 13.0 0.00 0.00 0.00 82 1011.9
20260905130015 60 85 6.0 11.0 0.00 0.00 0.00 82 1011.9
20260905125515 61 75 5.0 11.0 0.00 0.00 0.00 81 1011.9
20260905125115 61 86 7.0 11.0 0.00 0.00 0.00 82 1012.0
20260905124524 61 88 5.0 11.0 0.00 0.00 0.00 82 1012.0
20260905124018 61 51 6.0 14.0 0.00 0.00 0.00 82 1012.0
20260905123515 60 133 8.0 14.0 0.00 0.00 0.00 82 1012.0
20260905123016 60 78 7.0 13.0 0.00 0.00 0.00 82 1012.2
20260905122515 60 78 6.0 10.0 0.00 0.00 0.00 83 1012.2
20260905122014 60 88 6.0 9.0 0.00 0.00 0.00 83 1012.2
20260905121514 60 83 4.0 9.0 0.00 0.00 0.00 82 1012.3
20260905121014 60 89 6.0 9.0 0.00 0.00 0.00 82 1012.4
20260905120514 61 106 5.0 9.0 0.00 0.00 0.00 81 1012.4
20260905120013 61 128 3.0 8.0 0.00 0.00 0.00 82 1012.4
20260905115515 61 83 5.0 9.0 0.00 0.00 0.00 81 1012.2
20260905115114 61 86 4.0 9.0 0.00 0.00 0.00 82 1012.1
20260905114514 61 68 5.0 9.0 0.00 0.00 0.00 82 1012.1
20260905114015 61 57 5.0 9.0 0.00 0.00 0.00 82 1012.2
20260905113513 61 59 4.0 8.0 0.00 0.00 0.00 83 1012.1
20260905113011 61 89 4.0 9.0 0.00 0.00 0.00 83 1012.1
20260905112512 61 61 5.0 9.0 0.00 0.00 0.00 83 1012.2
20260905112011 60 56 4.0 9.0 0.00 0.00 0.00 84 1012.3
20260905111509 60 78 5.0 8.0 0.00 0.00 0.00 86 1012.4
20260905111008 59 95 2.0 8.0 0.00 0.00 0.00 88 1012.4
20260905110506 59 64 3.0 8.0 0.00 0.00 0.00 89 1012.6
20260905110005 58 78 1.0 5.0 0.00 0.00 0.00 92 1012.6
20260905105504 57 93 2.0 5.0 0.00 0.00 0.00 93 1012.6
20260905105103 55 91 1.0 4.0 0.00 0.00 0.00 95 1012.8
20260905104504 55 65 0.0 2.0 0.00 0.00 0.00 94 1012.8
20260905104002 54 272 0.0 0.0 0.00 0.00 0.00 94 1012.7
20260905103501 54 272 0.0 0.0 0.00 0.00 0.00 94 1012.6
20260905103101 54 272 0.0 0.0 0.00 0.00 0.00 94 1012.7
20260905102100 53 273 0.0 0.0 0.00 0.00 0.00 94 1012.7
20260905101609 53 272 0.0 0.0 0.00 0.00 0.00 94 1012.7
20260905101100 53 273 0.0 0.0 0.00 0.00 0.00 94 1012.5
20260905100602 52 273 0.0 0.0 0.00 0.00 0.00 94 1012.5
20260905100059 52 273 0.0 0.0 0.00 0.00 0.00 94 1012.4
20260905095558 52 273 0.0 0.0 0.00 0.00 0.00 93 1012.3
20260905095058 52 273 0.0 0.0 0.00 0.00 0.00 93 1012.2
20260905094600 52 273 0.0 0.0 0.00 0.00 0.00 93 1012.2
20260905094100 52 273 0.0 0.0 0.00 0.00 0.00 93 1012.1
20260905093559 52 273 0.0 0.0 0.00 0.00 0.00 93 1012.2
20260905093123 52 273 0.0 0.0 0.00 0.00 0.00 93 1012.2
20260905092559 52 273 0.0 1.0 0.00 0.00 0.00 93 1012.3
20260905092059 52 273 0.0 1.0 0.00 0.00 0.00 93 1012.2
20260905091606 52 273 0.0 1.0 0.00 0.00 0.00 93 1012.2
20260905091059 52 273 0.0 1.0 0.00 0.00 0.00 93 1012.2
20260905090558 53 273 0.0 2.0 0.00 0.00 0.00 93 1012.1
20260905090059 53 273 0.0 2.0 0.00 0.00 0.00 93 1012.1
20260905085602 53 272 0.0 1.0 0.00 0.00 0.00 93 1012.1
20260905085058 53 273 1.0 2.0 0.00 0.00 0.00 93 1012.2
20260905084601 53 273 1.0 2.0 0.00 0.00 0.00 93 1012.2
20260905084059 53 273 0.0 3.0 0.00 0.00 0.00 93 1012.2
20260905083559 53 273 0.0 4.0 0.00 0.00 0.00 93 1012.1
20260905083101 53 273 0.0 2.0 0.00 0.00 0.00 93 1012.1
20260905082558 53 272 0.0 0.0 0.00 0.00 0.00 93 1012.0
20260905082058 53 272 0.0 0.0 0.00 0.00 0.00 93 1011.9
20260905081559 53 273 0.0 0.0 0.00 0.00 0.00 93 1011.9
20260905081058 53 273 0.0 0.0 0.00 0.00 0.00 93 1011.9
20260905080557 53 273 0.0 0.0 0.00 0.00 0.00 93 1012.0
20260905080104 53 273 0.0 0.0 0.00 0.00 0.00 93 1012.0
20260905075555 53 273 0.0 0.0 0.00 0.00 0.00 93 1012.1
20260905075056 53 272 0.0 1.0 0.00 0.00 0.00 93 1012.1
20260905074556 53 273 0.0 2.0 0.00 0.00 0.00 93 1012.1
20260905074055 53 273 0.0 2.0 0.00 0.00 0.00 93 1012.2
20260905073559 53 273 0.0 2.0 0.00 0.00 0.00 93 1012.1
20260905073056 53 272 0.0 4.0 0.00 0.00 0.00 93 1012.2
20260905072556 53 274 1.0 4.0 0.00 0.00 0.00 93 1012.4
20260905072055 53 277 1.0 3.0 0.00 0.00 0.00 93 1012.3
20260905071556 53 277 1.0 5.0 0.00 0.00 0.00 93 1012.2
20260905071056 53 272 2.0 5.0 0.00 0.00 0.00 93 1012.2
20260905070555 53 267 3.0 5.0 0.00 0.00 0.00 93 1012.2
20260905070106 53 274 2.0 5.0 0.00 0.00 0.00 93 1012.1
20260905065555 53 266 2.0 5.0 0.00 0.00 0.00 93 1012.1
20260905065054 53 270 3.0 5.0 0.00 0.00 0.00 93 1012.1
20260905064555 53 272 3.0 5.0 0.00 0.00 0.00 93 1012.1
20260905064055 53 258 3.0 5.0 0.00 0.00 0.00 93 1012.1
20260905063555 52 269 3.0 5.0 0.00 0.00 0.00 93 1012.2
20260905063058 52 261 2.0 4.0 0.00 0.00 0.00 93 1012.2
20260905062554 52 261 1.0 5.0 0.00 0.00 0.00 93 1012.1
20260905062053 52 252 2.0 5.0 0.00 0.00 0.00 93 1012.1
20260905061554 52 257 1.0 5.0 0.00 0.00 0.00 93 1012.1
20260905061053 52 276 2.0 5.0 0.00 0.00 0.00 93 1012.2
20260905060552 52 256 2.0 5.0 0.00 0.00 0.00 93 1012.2
20260905060053 52 264 1.0 5.0 0.00 0.00 0.00 93 1012.1
20260905055552 52 258 1.0 5.0 0.00 0.00 0.00 93 1012.2
20260905055052 52 269 1.0 2.0 0.00 0.00 0.00 92 1012.2
20260905054556 52 269 0.0 2.0 0.00 0.00 0.00 92 1012.2
20260905054055 52 259 0.0 2.0 0.00 0.00 0.00 92 1012.2
20260905053552 52 270 1.0 4.0 0.00 0.00 0.00 92 1012.3
20260905053050 52 276 1.0 4.0 0.00 0.00 0.00 92 1012.2
20260905052550 52 274 0.0 4.0 0.00 0.00 0.00 92 1012.3
20260905052050 53 262 1.0 3.0 0.00 0.00 0.00 92 1012.2
20260905051549 53 262 1.0 4.0 0.00 0.00 0.00 91 1012.3
20260905051047 53 273 1.0 5.0 0.00 0.00 0.00 92 1012.3
20260905050547 53 266 3.0 5.0 0.00 0.00 0.00 92 1012.4
20260905050047 53 259 2.0 5.0 0.00 0.00 0.00 91 1012.4
20260905045546 53 255 1.0 3.0 0.00 0.00 0.00 91 1012.5
20260905045045 54 262 1.0 3.0 0.00 0.00 0.00 92 1012.6
20260905044547 54 265 2.0 4.0 0.00 0.00 0.00 92 1012.6
20260905044045 54 274 0.0 5.0 0.00 0.00 0.00 91 1012.6
20260905043545 54 268 1.0 5.0 0.00 0.00 0.00 91 1012.6
20260905043046 54 262 2.0 5.0 0.00 0.00 0.00 91 1012.6
20260905042547 54 257 2.0 5.0 0.00 0.00 0.00 91 1012.6
20260905042043 54 274 3.0 5.0 0.00 0.00 0.00 91 1012.7
20260905041545 54 257 3.0 5.0 0.00 0.00 0.00 91 1012.7
20260905041042 54 251 2.0 5.0 0.00 0.00 0.00 91 1012.8
20260905040542 54 275 2.0 5.0 0.00 0.00 0.00 91 1012.9
20260905040050 54 265 2.0 5.0 0.00 0.00 0.00 91 1013.1
20260905035539 54 261 2.0 5.0 0.00 0.00 0.00 92 1013.1
20260905035039 54 262 2.0 5.0 0.00 0.00 0.00 92 1013.2
20260905034540 54 265 2.0 5.0 0.00 0.00 0.00 92 1013.2
20260905034039 54 279 2.0 5.0 0.00 0.00 0.00 92 1013.3
20260905033538 54 264 3.0 5.0 0.00 0.00 0.00 92 1013.4
20260905033038 54 257 3.0 5.0 0.00 0.00 0.00 92 1013.4
20260905032537 54 274 2.0 4.0 0.00 0.00 0.00 92 1013.5
20260905032036 54 272 2.0 5.0 0.00 0.00 0.00 92 1013.6
20260905031536 54 269 2.0 5.0 0.00 0.00 0.00 92 1013.6
20260905031037 54 254 3.0 5.0 0.00 0.00 0.00 92 1013.6
20260905030536 54 276 3.0 4.0 0.00 0.00 0.00 91 1013.6
20260905030042 54 275 2.0 3.0 0.00 0.00 0.00 91 1013.7
20260905025534 54 251 1.0 4.0 0.00 0.00 0.00 91 1013.7
20260905025033 55 253 1.0 4.0 0.00 0.00 0.00 91 1013.7
20260905024534 55 253 1.0 4.0 0.00 0.00 0.00 91 1013.7
20260905024033 55 254 2.0 4.0 0.00 0.00 0.00 91 1013.7
20260905023532 55 255 1.0 3.0 0.00 0.00 0.00 91 1013.8
20260905023032 55 251 1.0 4.0 0.00 0.00 0.00 90 1013.8
20260905022532 55 255 1.0 5.0 0.00 0.00 0.00 91 1013.8
20260905022032 55 254 1.0 5.0 0.00 0.00 0.00 91 1013.8
20260905021531 55 264 2.0 5.0 0.00 0.00 0.00 91 1013.9
20260905021031 55 255 2.0 5.0 0.00 0.00 0.00 91 1013.9
20260905020531 55 256 2.0 6.0 0.00 0.00 0.00 91 1013.9
20260905020032 55 254 3.0 6.0 0.00 0.00 0.00 91 1013.8
20260905015529 56 237 3.0 6.0 0.00 0.00 0.00 91 1013.9
20260905015030 55 261 3.0 6.0 0.00 0.00 0.00 91 1014.1
20260905014529 56 259 3.0 6.0 0.00 0.00 0.00 91 1014.1
20260905014130 56 264 3.0 6.0 0.00 0.00 0.00 90 1014.1
20260905013532 56 260 1.0 5.0 0.00 0.00 0.00 90 1014.3
20260905013028 56 263 2.0 5.0 0.00 0.00 0.00 90 1014.2
20260905012527 56 265 2.0 3.0 0.00 0.00 0.00 90 1014.3
20260905012026 56 250 1.0 5.0 0.00 0.00 0.00 90 1014.3
20260905011525 56 266 2.0 7.0 0.00 0.00 0.00 90 1014.4
20260905011025 56 259 1.0 7.0 0.00 0.00 0.00 90 1014.5
20260905010525 56 255 3.0 6.0 0.00 0.00 0.00 89 1014.5
20260905010125 56 255 2.0 4.0 0.00 0.00 0.00 89 1014.5
20260905005524 56 250 1.0 4.0 0.00 0.00 0.00 89 1014.5
20260905005025 57 236 1.0 6.0 0.00 0.00 0.00 89 1014.6
20260905004524 57 216 1.0 6.0 0.00 0.00 0.00 89 1014.6
20260905004024 57 237 2.0 6.0 0.00 0.00 0.00 89 1014.6
20260905003528 57 253 2.0 6.0 0.00 0.00 0.00 89 1014.6
20260905003024 57 244 2.0 6.0 0.00 0.00 0.00 89 1014.6
20260905002523 57 261 4.0 6.0 0.00 0.00 0.00 89 1014.8
20260905002024 57 225 3.0 6.0 0.00 0.00 0.00 89 1014.8
20260905001524 57 251 3.0 6.0 0.00 0.00 0.00 90 1014.8
20260905001024 57 235 4.0 6.0 0.00 0.00 0.00 90 1014.9